| time (UTC) | temp F | wind direction | speed MPH | gust MPH | rain 1hr in | rain 24hr in | rain mn in | humidity % | barometer mb |
| 20260503050046 | 40 | 343 | 0.0 | 0.0 | 0.00 | 0.00 | 0.00 | 83 | 1013.8 |
| 20260503045526 | 40 | 343 | 0.0 | 0.0 | 0.00 | 0.00 | 0.00 | 82 | 1013.7 |
| 20260503045104 | 41 | 343 | 0.0 | 0.0 | 0.00 | 0.00 | 0.00 | 82 | 1013.6 |
| 20260503044506 | 41 | 343 | 0.0 | 0.0 | 0.00 | 0.00 | 0.00 | 81 | 1013.5 |
| 20260503044055 | 41 | 343 | 0.0 | 0.0 | 0.00 | 0.00 | 0.00 | 81 | 1013.6 |
| 20260503043540 | 41 | 343 | 0.0 | 0.0 | 0.00 | 0.00 | 0.00 | 80 | 1013.6 |
| 20260503043048 | 41 | 343 | 0.0 | 0.0 | 0.00 | 0.00 | 0.00 | 80 | 1013.5 |
| 20260503042534 | 42 | 343 | 0.0 | 0.0 | 0.00 | 0.00 | 0.00 | 79 | 1013.5 |
| 20260503042020 | 42 | 343 | 0.0 | 0.0 | 0.00 | 0.00 | 0.00 | 79 | 1013.5 |
| 20260503041530 | 42 | 343 | 0.0 | 0.0 | 0.00 | 0.00 | 0.00 | 79 | 1013.6 |
| 20260503041017 | 42 | 343 | 0.0 | 3.0 | 0.00 | 0.00 | 0.00 | 79 | 1013.5 |
| 20260503040557 | 42 | 343 | 0.0 | 3.0 | 0.00 | 0.00 | 0.00 | 79 | 1013.4 |
| 20260503040031 | 43 | 343 | 0.0 | 0.0 | 0.00 | 0.00 | 0.00 | 77 | 1013.3 |
| 20260503035558 | 43 | 343 | 0.0 | 3.0 | 0.00 | 0.00 | 0.00 | 77 | 1013.3 |
| 20260503035041 | 43 | 343 | 0.0 | 3.0 | 0.00 | 0.00 | 0.00 | 78 | 1013.2 |
| 20260503034554 | 44 | 343 | 0.0 | 0.0 | 0.00 | 0.00 | 0.00 | 75 | 1013.2 |
| 20260503034038 | 44 | 343 | 0.0 | 0.0 | 0.00 | 0.00 | 0.00 | 74 | 1013.2 |
| 20260503033538 | 44 | 343 | 0.0 | 0.0 | 0.00 | 0.00 | 0.00 | 73 | 1013.1 |
| 20260503033100 | 45 | 343 | 0.0 | 0.0 | 0.00 | 0.00 | 0.00 | 72 | 1013.1 |
| 20260503032534 | 45 | 343 | 0.0 | 0.0 | 0.00 | 0.00 | 0.00 | 71 | 1013.0 |
| 20260503032004 | 45 | 343 | 0.0 | 0.0 | 0.00 | 0.00 | 0.00 | 73 | 1012.9 |
| 20260503031558 | 46 | 343 | 0.0 | 0.0 | 0.00 | 0.00 | 0.00 | 74 | 1013.0 |
| 20260503031041 | 46 | 343 | 0.0 | 0.0 | 0.00 | 0.00 | 0.00 | 69 | 1013.0 |
| 20260503030524 | 46 | 343 | 0.0 | 0.0 | 0.00 | 0.00 | 0.00 | 70 | 1012.9 |
| 20260503030037 | 46 | 343 | 0.0 | 0.0 | 0.00 | 0.00 | 0.00 | 67 | 1012.9 |
| 20260503025506 | 46 | 343 | 0.0 | 0.0 | 0.00 | 0.00 | 0.00 | 69 | 1012.9 |
| 20260503025055 | 46 | 343 | 0.0 | 0.0 | 0.00 | 0.00 | 0.00 | 65 | 1012.9 |
| 20260503024503 | 46 | 343 | 0.0 | 0.0 | 0.00 | 0.00 | 0.00 | 66 | 1012.9 |
| 20260503024047 | 46 | 343 | 0.0 | 0.0 | 0.00 | 0.00 | 0.00 | 66 | 1012.9 |
| 20260503023528 | 47 | 343 | 0.0 | 0.0 | 0.00 | 0.00 | 0.00 | 66 | 1012.9 |
| 20260503023038 | 47 | 343 | 0.0 | 0.0 | 0.00 | 0.00 | 0.00 | 66 | 1012.8 |
| 20260503022526 | 47 | 343 | 0.0 | 0.0 | 0.00 | 0.00 | 0.00 | 66 | 1012.7 |
| 20260503022106 | 48 | 343 | 0.0 | 0.0 | 0.00 | 0.00 | 0.00 | 63 | 1012.6 |
| 20260503021553 | 48 | 343 | 0.0 | 0.0 | 0.00 | 0.00 | 0.00 | 63 | 1012.7 |
| 20260503021030 | 49 | 343 | 0.0 | 0.0 | 0.00 | 0.00 | 0.00 | 62 | 1012.7 |
| 20260503020504 | 49 | 343 | 0.0 | 0.0 | 0.00 | 0.00 | 0.00 | 63 | 1012.7 |
| 20260503020017 | 49 | 343 | 0.0 | 0.0 | 0.00 | 0.00 | 0.00 | 61 | 1012.6 |
| 20260503015601 | 50 | 343 | 0.0 | 0.0 | 0.00 | 0.00 | 0.00 | 60 | 1012.6 |
| 20260503015043 | 50 | 343 | 0.0 | 1.0 | 0.00 | 0.00 | 0.00 | 61 | 1012.5 |
| 20260503014552 | 51 | 343 | 0.0 | 2.0 | 0.00 | 0.00 | 0.00 | 59 | 1012.4 |
| 20260503014033 | 51 | 343 | 0.0 | 3.0 | 0.00 | 0.00 | 0.00 | 58 | 1012.3 |
| 20260503013513 | 51 | 343 | 0.0 | 4.0 | 0.00 | 0.00 | 0.00 | 55 | 1012.1 |
| 20260503013028 | 52 | 343 | 0.0 | 4.0 | 0.00 | 0.00 | 0.00 | 55 | 1012.1 |
| 20260503012501 | 52 | 343 | 1.0 | 4.0 | 0.00 | 0.00 | 0.00 | 53 | 1012.0 |
| 20260503012049 | 52 | 343 | 1.0 | 4.0 | 0.00 | 0.00 | 0.00 | 53 | 1012.0 |
| 20260503011603 | 52 | 342 | 0.0 | 3.0 | 0.00 | 0.00 | 0.00 | 53 | 1011.9 |
| 20260503011038 | 52 | 343 | 0.0 | 4.0 | 0.00 | 0.00 | 0.00 | 52 | 1011.9 |
| 20260503010506 | 53 | 343 | 0.0 | 5.0 | 0.00 | 0.00 | 0.00 | 52 | 1011.7 |
| 20260503010034 | 53 | 343 | 0.0 | 6.0 | 0.00 | 0.00 | 0.00 | 52 | 1011.6 |
| 20260503005514 | 53 | 343 | 1.0 | 8.0 | 0.00 | 0.00 | 0.00 | 53 | 1011.5 |
| 20260503005049 | 53 | 345 | 1.0 | 4.0 | 0.00 | 0.00 | 0.00 | 54 | 1011.4 |
| 20260503004602 | 54 | 345 | 1.0 | 4.0 | 0.00 | 0.00 | 0.00 | 54 | 1011.4 |
| 20260503004040 | 54 | 345 | 0.0 | 4.0 | 0.00 | 0.00 | 0.00 | 51 | 1011.4 |
| 20260503003530 | 54 | 345 | 1.0 | 9.0 | 0.00 | 0.00 | 0.00 | 51 | 1011.3 |
| 20260503003045 | 55 | 345 | 3.0 | 9.0 | 0.00 | 0.00 | 0.00 | 50 | 1011.1 |
| 20260503002530 | 55 | 356 | 2.0 | 6.0 | 0.00 | 0.00 | 0.00 | 50 | 1011.0 |
| 20260503002014 | 55 | 357 | 0.0 | 4.0 | 0.00 | 0.00 | 0.00 | 50 | 1011.0 |
| 20260503001603 | 56 | 357 | 2.0 | 4.0 | 0.00 | 0.00 | 0.00 | 49 | 1010.8 |
| 20260503001045 | 56 | 357 | 0.0 | 4.0 | 0.00 | 0.00 | 0.00 | 49 | 1010.8 |
| 20260503000534 | 57 | 357 | 1.0 | 5.0 | 0.00 | 0.00 | 0.00 | 47 | 1010.7 |
| 20260503000015 | 57 | 357 | 2.0 | 6.0 | 0.00 | 0.00 | 0.00 | 48 | 1010.6 |
| 20260502235501 | 58 | 357 | 1.0 | 6.0 | 0.00 | 0.00 | 0.00 | 49 | 1010.6 |
| 20260502235048 | 58 | 357 | 0.0 | 5.0 | 0.00 | 0.00 | 0.00 | 47 | 1010.4 |
| 20260502234616 | 58 | 357 | 1.0 | 5.0 | 0.00 | 0.00 | 0.00 | 45 | 1010.3 |
| 20260502234053 | 58 | 357 | 1.0 | 4.0 | 0.00 | 0.00 | 0.00 | 44 | 1010.2 |
| 20260502233541 | 58 | 356 | 0.0 | 9.0 | 0.00 | 0.00 | 0.00 | 47 | 1010.2 |
| 20260502233036 | 58 | 356 | 1.0 | 10.0 | 0.00 | 0.00 | 0.00 | 45 | 1010.0 |
| 20260502232507 | 58 | 4 | 0.0 | 3.0 | 0.00 | 0.00 | 0.00 | 52 | 1010.0 |
| 20260502232052 | 58 | 4 | 0.0 | 3.0 | 0.00 | 0.00 | 0.00 | 51 | 1009.9 |
| 20260502231506 | 58 | 4 | 1.0 | 5.0 | 0.00 | 0.00 | 0.00 | 52 | 1009.9 |
| 20260502231100 | 58 | 4 | 2.0 | 5.0 | 0.00 | 0.00 | 0.00 | 49 | 1009.8 |
| 20260502230551 | 58 | 4 | 0.0 | 4.0 | 0.00 | 0.00 | 0.00 | 51 | 1009.8 |
| 20260502230106 | 59 | 4 | 0.0 | 2.0 | 0.00 | 0.00 | 0.00 | 50 | 1009.8 |
| 20260502225551 | 59 | 4 | 0.0 | 3.0 | 0.00 | 0.00 | 0.00 | 49 | 1009.9 |
| 20260502225021 | 59 | 4 | 1.0 | 4.0 | 0.00 | 0.00 | 0.00 | 48 | 1009.8 |
| 20260502224545 | 59 | 4 | 1.0 | 5.0 | 0.00 | 0.00 | 0.00 | 47 | 1009.8 |
| 20260502224028 | 60 | 4 | 1.0 | 9.0 | 0.00 | 0.00 | 0.00 | 46 | 1009.7 |
| 20260502223509 | 60 | 4 | 3.0 | 9.0 | 0.00 | 0.00 | 0.00 | 48 | 1009.6 |
| 20260502223044 | 60 | 9 | 3.0 | 8.0 | 0.00 | 0.00 | 0.00 | 47 | 1009.5 |
| 20260502222525 | 60 | 14 | 2.0 | 8.0 | 0.00 | 0.00 | 0.00 | 46 | 1009.4 |
| 20260502222010 | 60 | 14 | 3.0 | 8.0 | 0.00 | 0.00 | 0.00 | 46 | 1009.3 |
| 20260502221528 | 60 | 14 | 4.0 | 8.0 | 0.00 | 0.00 | 0.00 | 46 | 1009.3 |
| 20260502221007 | 60 | 14 | 1.0 | 8.0 | 0.00 | 0.00 | 0.00 | 46 | 1009.2 |
| 20260502220602 | 60 | 14 | 3.0 | 8.0 | 0.00 | 0.00 | 0.00 | 50 | 1009.2 |
| 20260502220034 | 61 | 20 | 2.0 | 8.0 | 0.00 | 0.00 | 0.00 | 46 | 1009.2 |
| 20260502215605 | 61 | 20 | 4.0 | 8.0 | 0.00 | 0.00 | 0.00 | 48 | 1009.1 |
| 20260502215049 | 61 | 22 | 2.0 | 5.0 | 0.00 | 0.00 | 0.00 | 45 | 1009.0 |
| 20260502214608 | 62 | 22 | 1.0 | 5.0 | 0.00 | 0.00 | 0.00 | 47 | 1008.9 |
| 20260502214040 | 62 | 22 | 1.0 | 5.0 | 0.00 | 0.00 | 0.00 | 50 | 1008.8 |
| 20260502213523 | 62 | 22 | 2.0 | 5.0 | 0.00 | 0.00 | 0.00 | 49 | 1008.8 |
| 20260502213040 | 62 | 22 | 0.0 | 5.0 | 0.00 | 0.00 | 0.00 | 48 | 1008.6 |
| 20260502212508 | 62 | 22 | 1.0 | 5.0 | 0.00 | 0.00 | 0.00 | 48 | 1008.6 |
| 20260502212055 | 62 | 22 | 1.0 | 5.0 | 0.00 | 0.00 | 0.00 | 49 | 1008.6 |
| 20260502211545 | 63 | 22 | 0.0 | 2.0 | 0.00 | 0.00 | 0.00 | 46 | 1008.5 |
| 20260502211017 | 63 | 22 | 0.0 | 2.0 | 0.00 | 0.00 | 0.00 | 45 | 1008.4 |
| 20260502210556 | 63 | 22 | 0.0 | 2.0 | 0.00 | 0.00 | 0.00 | 47 | 1008.4 |
| 20260502210044 | 63 | 22 | 0.0 | 2.0 | 0.00 | 0.00 | 0.00 | 47 | 1008.4 |
| 20260502205518 | 63 | 22 | 0.0 | 4.0 | 0.00 | 0.00 | 0.00 | 48 | 1008.4 |
| 20260502205001 | 63 | 22 | 0.0 | 6.0 | 0.00 | 0.00 | 0.00 | 47 | 1008.4 |
| 20260502204506 | 64 | 22 | 2.0 | 7.0 | 0.00 | 0.00 | 0.00 | 46 | 1008.4 |
| 20260502204054 | 64 | 26 | 2.0 | 5.0 | 0.00 | 0.00 | 0.00 | 47 | 1008.4 |
| 20260502203532 | 64 | 27 | 1.0 | 4.0 | 0.00 | 0.00 | 0.00 | 44 | 1008.4 |
| 20260502203056 | 63 | 27 | 0.0 | 5.0 | 0.00 | 0.00 | 0.00 | 49 | 1008.4 |
| 20260502202536 | 63 | 27 | 1.0 | 5.0 | 0.00 | 0.00 | 0.00 | 50 | 1008.4 |
| 20260502202025 | 63 | 27 | 0.0 | 4.0 | 0.00 | 0.00 | 0.00 | 51 | 1008.5 |
| 20260502201538 | 63 | 27 | 0.0 | 5.0 | 0.00 | 0.00 | 0.00 | 53 | 1008.6 |
| 20260502201005 | 62 | 27 | 1.0 | 5.0 | 0.00 | 0.00 | 0.00 | 51 | 1008.6 |
| 20260502200557 | 62 | 27 | 0.0 | 3.0 | 0.00 | 0.00 | 0.00 | 54 | 1008.6 |
| 20260502200003 | 61 | 27 | 0.0 | 1.0 | 0.00 | 0.00 | 0.00 | 52 | 1008.7 |
| 20260502195550 | 61 | 27 | 0.0 | 6.0 | 0.00 | 0.00 | 0.00 | 50 | 1008.8 |
| 20260502195032 | 61 | 27 | 2.0 | 8.0 | 0.00 | 0.00 | 0.00 | 49 | 1009.1 |
| 20260502194544 | 62 | 28 | 2.0 | 6.0 | 0.00 | 0.00 | 0.00 | 48 | 1009.1 |
| 20260502194025 | 62 | 35 | 1.0 | 6.0 | 0.00 | 0.00 | 0.00 | 53 | 1009.2 |
| 20260502193602 | 62 | 37 | 2.0 | 8.0 | 0.00 | 0.00 | 0.00 | 50 | 1009.4 |
| 20260502193024 | 62 | 37 | 5.0 | 9.0 | 0.00 | 0.00 | 0.00 | 48 | 1009.4 |
| 20260502192601 | 62 | 37 | 1.0 | 9.0 | 0.00 | 0.00 | 0.00 | 50 | 1009.3 |
| 20260502192043 | 62 | 35 | 0.0 | 8.0 | 0.00 | 0.00 | 0.00 | 50 | 1009.4 |
| 20260502191550 | 61 | 35 | 4.0 | 8.0 | 0.00 | 0.00 | 0.00 | 56 | 1009.4 |
| 20260502191036 | 61 | 35 | 2.0 | 6.0 | 0.00 | 0.00 | 0.00 | 52 | 1009.4 |
| 20260502190510 | 61 | 35 | 1.0 | 5.0 | 0.00 | 0.00 | 0.00 | 50 | 1009.4 |
| 20260502190034 | 61 | 36 | 1.0 | 4.0 | 0.00 | 0.00 | 0.00 | 48 | 1009.4 |
| 20260502185517 | 61 | 36 | 1.0 | 5.0 | 0.00 | 0.00 | 0.00 | 50 | 1009.6 |
| 20260502185054 | 61 | 36 | 2.0 | 8.0 | 0.00 | 0.00 | 0.00 | 52 | 1009.8 |
| 20260502184508 | 60 | 36 | 4.0 | 8.0 | 0.00 | 0.00 | 0.00 | 51 | 1009.8 |
| 20260502184054 | 60 | 34 | 2.0 | 6.0 | 0.00 | 0.00 | 0.00 | 52 | 1009.8 |
| 20260502183537 | 59 | 34 | 1.0 | 5.0 | 0.00 | 0.00 | 0.00 | 53 | 1009.9 |
| 20260502183047 | 59 | 34 | 2.0 | 5.0 | 0.00 | 0.00 | 0.00 | 49 | 1009.8 |
| 20260502182526 | 58 | 34 | 2.0 | 5.0 | 0.00 | 0.00 | 0.00 | 53 | 1010.1 |
| 20260502182011 | 58 | 34 | 2.0 | 5.0 | 0.00 | 0.00 | 0.00 | 52 | 1010.1 |
| 20260502181531 | 58 | 34 | 1.0 | 5.0 | 0.00 | 0.00 | 0.00 | 48 | 1010.2 |
| 20260502181008 | 58 | 34 | 0.0 | 3.0 | 0.00 | 0.00 | 0.00 | 53 | 1010.3 |
| 20260502180552 | 58 | 34 | 1.0 | 6.0 | 0.00 | 0.00 | 0.00 | 49 | 1010.4 |
| 20260502164006 | 55 | 36 | 0.0 | 5.0 | 0.00 | 0.00 | 0.00 | 57 | 1011.8 |
| 20260502163603 | 55 | 36 | 0.0 | 5.0 | 0.00 | 0.00 | 0.00 | 60 | 1011.9 |
| 20260502163012 | 55 | 36 | 1.0 | 3.0 | 0.00 | 0.00 | 0.00 | 57 | 1012.0 |
| 20260502162603 | 55 | 36 | 0.0 | 6.0 | 0.00 | 0.00 | 0.00 | 59 | 1012.0 |
| 20260502162050 | 54 | 36 | 0.0 | 6.0 | 0.00 | 0.00 | 0.00 | 57 | 1012.0 |
| 20260502161601 | 54 | 36 | 0.0 | 8.0 | 0.00 | 0.00 | 0.00 | 58 | 1012.1 |
| 20260502161042 | 54 | 36 | 0.0 | 8.0 | 0.00 | 0.00 | 0.00 | 59 | 1012.3 |
| 20260502160531 | 54 | 45 | 2.0 | 8.0 | 0.00 | 0.00 | 0.00 | 61 | 1012.2 |
| 20260502152004 | 52 | 46 | 0.0 | 3.0 | 0.00 | 0.00 | 0.00 | 64 | 1012.6 |
| 20260502151608 | 52 | 46 | 1.0 | 3.0 | 0.00 | 0.00 | 0.00 | 61 | 1012.4 |
| 20260502151044 | 52 | 46 | 0.0 | 2.0 | 0.00 | 0.00 | 0.00 | 61 | 1012.3 |
| 20260502150538 | 52 | 46 | 0.0 | 1.0 | 0.00 | 0.00 | 0.00 | 60 | 1012.4 |
| 20260502150108 | 52 | 46 | 0.0 | 2.0 | 0.00 | 0.00 | 0.00 | 62 | 1012.4 |
| 20260502130558 | 51 | 47 | 0.0 | 2.0 | 0.00 | 0.00 | 0.00 | 66 | 1011.8 |
| 20260502123516 | 51 | 47 | 0.0 | 0.0 | 0.00 | 0.00 | 0.00 | 70 | 1011.4 |
| 20260502123031 | 51 | 47 | 0.0 | 0.0 | 0.00 | 0.00 | 0.00 | 70 | 1011.4 |
| 20260502122526 | 51 | 47 | 0.0 | 0.0 | 0.00 | 0.00 | 0.00 | 70 | 1011.2 |
| 20260502122008 | 51 | 47 | 0.0 | 0.0 | 0.00 | 0.00 | 0.00 | 74 | 1011.2 |
| 20260502121522 | 51 | 47 | 0.0 | 0.0 | 0.00 | 0.00 | 0.00 | 77 | 1011.3 |
| 20260502121104 | 50 | 47 | 0.0 | 0.0 | 0.00 | 0.00 | 0.00 | 72 | 1011.4 |
| 20260502120549 | 50 | 47 | 0.0 | 0.0 | 0.00 | 0.00 | 0.00 | 75 | 1011.5 |
| 20260502115519 | 51 | 47 | 0.0 | 0.0 | 0.00 | 0.00 | 0.00 | 77 | 1011.5 |
| 20260502115056 | 51 | 47 | 0.0 | 0.0 | 0.00 | 0.00 | 0.00 | 77 | 1011.4 |
| 20260502114506 | 50 | 47 | 0.0 | 0.0 | 0.00 | 0.00 | 0.00 | 75 | 1011.5 |
| 20260502114050 | 51 | 47 | 0.0 | 0.0 | 0.00 | 0.00 | 0.00 | 76 | 1011.5 |
| 20260502113535 | 51 | 47 | 0.0 | 0.0 | 0.00 | 0.00 | 0.00 | 79 | 1011.3 |
| 20260502113048 | 51 | 47 | 0.0 | 0.0 | 0.00 | 0.00 | 0.00 | 79 | 1011.2 |
| 20260502112530 | 50 | 47 | 0.0 | 0.0 | 0.00 | 0.00 | 0.00 | 76 | 1011.1 |
| 20260502112017 | 50 | 47 | 0.0 | 0.0 | 0.00 | 0.00 | 0.00 | 73 | 1011.1 |
| 20260502111524 | 50 | 47 | 0.0 | 0.0 | 0.00 | 0.00 | 0.00 | 75 | 1010.9 |
| 20260502111002 | 50 | 47 | 0.0 | 2.0 | 0.00 | 0.00 | 0.00 | 78 | 1010.9 |
| 20260502110546 | 50 | 47 | 0.0 | 2.0 | 0.00 | 0.00 | 0.00 | 77 | 1011.1 |
| 20260502110058 | 49 | 47 | 0.0 | 2.0 | 0.00 | 0.00 | 0.00 | 78 | 1010.9 |
| 20260502105542 | 49 | 47 | 0.0 | 0.0 | 0.00 | 0.00 | 0.00 | 82 | 1010.9 |
| 20260502105028 | 49 | 47 | 0.0 | 0.0 | 0.00 | 0.00 | 0.00 | 82 | 1010.8 |
| 20260502104546 | 49 | 47 | 0.0 | 2.0 | 0.00 | 0.00 | 0.00 | 83 | 1010.8 |
| 20260502104006 | 50 | 47 | 0.0 | 2.0 | 0.00 | 0.00 | 0.00 | 84 | 1010.7 |
| 20260502103555 | 50 | 47 | 0.0 | 1.0 | 0.00 | 0.00 | 0.00 | 84 | 1010.6 |
| 20260502103004 | 50 | 47 | 0.0 | 0.0 | 0.00 | 0.00 | 0.00 | 84 | 1010.5 |
| 20260502102549 | 50 | 47 | 0.0 | 0.0 | 0.00 | 0.00 | 0.00 | 83 | 1010.7 |
| 20260502102032 | 50 | 47 | 0.0 | 0.0 | 0.00 | 0.00 | 0.00 | 83 | 1010.8 |
| 20260502101536 | 50 | 47 | 0.0 | 0.0 | 0.00 | 0.00 | 0.00 | 84 | 1010.8 |
| 20260502101021 | 50 | 47 | 0.0 | 0.0 | 0.00 | 0.00 | 0.00 | 84 | 1010.8 |
| 20260502100558 | 50 | 47 | 0.0 | 0.0 | 0.00 | 0.00 | 0.00 | 84 | 1010.7 |
| 20260502100106 | 50 | 47 | 0.0 | 0.0 | 0.00 | 0.00 | 0.00 | 85 | 1010.7 |
| 20260502091018 | 50 | 47 | 0.0 | 0.0 | 0.00 | 0.00 | 0.00 | 88 | 1010.9 |
| 20260502090502 | 50 | 47 | 0.0 | 0.0 | 0.00 | 0.00 | 0.00 | 88 | 1010.7 |
| 20260502071527 | 51 | 47 | 0.0 | 0.0 | 0.00 | 0.00 | 0.00 | 88 | 1009.7 |
| 20260502071104 | 51 | 47 | 0.0 | 0.0 | 0.00 | 0.00 | 0.00 | 88 | 1009.7 |
| 20260502070546 | 51 | 47 | 0.0 | 0.0 | 0.00 | 0.00 | 0.00 | 88 | 1009.8 |
| 20260502070100 | 51 | 47 | 0.0 | 0.0 | 0.00 | 0.00 | 0.00 | 88 | 1009.9 |
| 20260502065541 | 51 | 47 | 0.0 | 0.0 | 0.00 | 0.00 | 0.00 | 88 | 1009.9 |
| 20260502065032 | 51 | 47 | 0.0 | 0.0 | 0.00 | 0.00 | 0.00 | 89 | 1010.1 |
| 20260502064540 | 51 | 47 | 0.0 | 0.0 | 0.00 | 0.00 | 0.00 | 89 | 1010.1 |
| 20260502064010 | 51 | 47 | 0.0 | 0.0 | 0.00 | 0.00 | 0.00 | 88 | 1010.2 |
| 20260502063554 | 51 | 47 | 0.0 | 0.0 | 0.00 | 0.00 | 0.00 | 89 | 1010.3 |
| 20260502063106 | 51 | 47 | 0.0 | 0.0 | 0.00 | 0.00 | 0.00 | 88 | 1010.3 |
| 20260502062548 | 52 | 47 | 0.0 | 0.0 | 0.00 | 0.00 | 0.00 | 88 | 1010.3 |
| 20260502062034 | 52 | 47 | 0.0 | 2.0 | 0.00 | 0.00 | 0.00 | 88 | 1010.4 |
| 20260502061539 | 52 | 47 | 0.0 | 2.0 | 0.00 | 0.00 | 0.00 | 88 | 1010.4 |
| 20260502061028 | 52 | 47 | 0.0 | 0.0 | 0.00 | 0.00 | 0.00 | 88 | 1010.4 |
| 20260502060604 | 52 | 47 | 0.0 | 0.0 | 0.00 | 0.00 | 0.00 | 88 | 1010.4 |
| 20260502060008 | 52 | 47 | 0.0 | 0.0 | 0.00 | 0.00 | 0.00 | 88 | 1010.4 |
| 20260502055600 | 52 | 47 | 0.0 | 0.0 | 0.00 | 0.00 | 0.00 | 88 | 1010.4 |
| 20260502055042 | 52 | 47 | 0.0 | 0.0 | 0.00 | 0.00 | 0.00 | 88 | 1010.4 |
| 20260502054554 | 52 | 47 | 0.0 | 0.0 | 0.00 | 0.00 | 0.00 | 88 | 1010.5 |
| 20260502054048 | 53 | 47 | 0.0 | 0.0 | 0.00 | 0.00 | 0.00 | 87 | 1010.5 |
| 20260502053529 | 53 | 47 | 0.0 | 0.0 | 0.00 | 0.00 | 0.00 | 87 | 1010.5 |
| 20260502053046 | 53 | 47 | 0.0 | 0.0 | 0.00 | 0.00 | 0.00 | 86 | 1010.5 |
| 20260502052533 | 53 | 47 | 0.0 | 1.0 | 0.00 | 0.00 | 0.00 | 86 | 1010.4 |
| 20260502052008 | 53 | 47 | 0.0 | 2.0 | 0.00 | 0.00 | 0.00 | 86 | 1010.5 |
| 20260502051503 | 53 | 47 | 0.0 | 0.0 | 0.00 | 0.00 | 0.00 | 86 | 1010.6 |
| 20260502051050 | 53 | 47 | 0.0 | 0.0 | 0.00 | 0.00 | 0.00 | 86 | 1010.4 |
| 20260502050542 | 54 | 47 | 0.0 | 0.0 | 0.00 | 0.00 | 0.00 | 85 | 1010.4 |